Regional Weather Roundup
Issued by NWS

Home | Current Version | Previous Version | Text Only | Print | Product List | Glossary Off
Versions: 1 2 3 4 5 6 7 8 9 10 11 12 13 14 15 16 17 18 19 20 21 22 23 24 25 26 27 28 29 30 31 32 33 34 35 36 37 38 39 40 41 42 43 44 45 46 47 48 49 50

000
ASUS43 KFSD 201910
RWRSD

WEATHER ROUNDUP FOR SOUTH DAKOTA
NATIONAL WEATHER SERVICE SIOUX FALLS SD
100 PM CST MON NOV 20 2017

NOTE: "FAIR" INDICATES FEW OR NO CLOUDS BELOW 12,000 FEET WITH NO
SIGNIFICANT WEATHER AND/OR OBSTRUCTIONS TO VISIBILITY.


SDZ001>005-009-010-012>017-202000-
NORTHWEST AND NORTH CENTRAL SOUTH DAKOTA

CITY           SKY/WX    TMP DP  RH WIND       PRES   REMARKS
BUFFALO          N/A     57  17  21 NW36G43   29.49S
FAITH            N/A     57  18  21 W22       29.54S
MOBRIDGE       CLOUDY    61  21  21 NW18G26   29.45F
$$

SDZ012>016-024>037-041>051-057-063-072>074-202000-
SOUTHWEST AND SOUTH CENTRAL SOUTH DAKOTA

CITY           SKY/WX    TMP DP  RH WIND       PRES   REMARKS
RAPID CTY ARPT CLOUDY    65  15  14 N18G28    29.59F
PIERRE         CLOUDY    58  23  26 W6        29.52F
CUSTER         CLOUDY    48  11  22 W12G22    29.70R
ELLSWORTH AFB  MOSUNNY   64  15  15 N16       29.58F
PHILIP         MOSUNNY   68  15  13 W21G29    29.56S
PINE RIDGE     SUNNY     62  12  14 W20G30    29.65F
SPEARFISH      FAIR      59  14  17 W22G31    29.64R
WINNER         FAIR      62  22  21 W8        29.54F
$$

SDZ004>011-016>023-039-040-202000-
NORTHEAST SOUTH DAKOTA

CITY           SKY/WX    TMP DP  RH WIND       PRES   REMARKS
ABERDEEN       CLOUDY    54  28  36 SW9       29.45F
WATERTOWN      CLOUDY    45  25  45 SW13      29.45F
BROOKINGS      MOSUNNY   47  26  44 SW7       29.47F
SISSETON         N/A     53  22  29 W24G32    29.36F
$$

SDZ017-020-022-023-036>040-048>070-202000-
SOUTHEAST SOUTH DAKOTA

CITY           SKY/WX    TMP DP  RH WIND       PRES   REMARKS
SIOUX FALLS    CLOUDY    46  27  47 SW8       29.52F
HURON          CLOUDY    53  24  32 SW6       29.49F
CHAMBERLAIN    CLOUDY    51  26  37 W9        29.53S
MITCHELL       CLOUDY    51  23  33 W9        29.50F
YANKTON        CLOUDY    49  23  36 SW12      29.53F
$$

ABBREVIATIONS USED IN REMARKS
   TC - TEMPERATURE IN CELSIUS
  WCI - WIND CHILL INDEX
   HX - HEAT INDEX
  VSB - VISIBILITY




USA.gov is the U.S. government's official web portal to all federal, state and local government web resources and services.